Time,TemperatureF,DewpointF,PressureIn,WindDirection,WindDirectionDegrees,WindSpeedMPH,WindSpeedGustMPH,Humidity,HourlyPrecipIn,Conditions,Clouds,dailyrainin,SolarRadiationWatts/m^2,SoftwareType,DateUTC
2013-04-06 00:02:00,65.0,15.0,30.02,West,262,27.0,35.0,14,-99.99,,,-99.99,0.000000,,2013-04-06 06:02:00,
2013-04-06 00:12:00,64.0,15.0,30.03,West,259,26.0,36.0,14,-99.99,,,-99.99,0.000000,,2013-04-06 06:12:00,
2013-04-06 00:22:00,64.0,15.0,30.03,West,259,26.0,36.0,14,-99.99,,,-99.99,0.000000,,2013-04-06 06:22:00,
2013-04-06 00:32:00,64.0,16.0,30.03,WSW,256,27.0,36.0,14,-99.99,,,-99.99,0.000000,,2013-04-06 06:32:00,
2013-04-06 00:42:00,64.0,16.0,30.03,WSW,252,29.0,37.0,15,-99.99,,,-99.99,0.000000,,2013-04-06 06:42:00,
2013-04-06 00:53:00,64.0,16.0,30.03,WSW,252,29.0,37.0,15,-99.99,,,-99.99,0.000000,,2013-04-06 06:53:00,
2013-04-06 01:03:00,63.0,16.0,30.03,WSW,256,29.0,37.0,15,-99.99,,,-99.99,0.000000,,2013-04-06 07:03:00,
2013-04-06 01:12:00,63.0,17.0,30.03,WSW,256,29.0,36.0,16,-99.99,,,-99.99,0.000000,,2013-04-06 07:12:00,
2013-04-06 01:22:00,63.0,17.0,30.03,WSW,256,29.0,36.0,16,-99.99,,,-99.99,0.000000,,2013-04-06 07:22:00,
2013-04-06 01:33:00,62.0,17.0,30.04,West,263,24.0,34.0,17,-99.99,,,-99.99,0.000000,,2013-04-06 07:33:00,
2013-04-06 01:43:00,61.0,18.0,30.04,West,268,23.0,31.0,18,-99.99,,,-99.99,0.000000,,2013-04-06 07:43:00,
2013-04-06 01:53:00,61.0,18.0,30.04,West,268,23.0,31.0,18,-99.99,,,-99.99,0.000000,,2013-04-06 07:53:00,
2013-04-06 02:02:00,59.0,18.0,30.04,West,273,23.0,31.0,20,-99.99,,,-99.99,0.000000,,2013-04-06 08:02:00,
2013-04-06 02:13:00,58.0,19.0,30.04,WNW,284,24.0,30.0,21,-99.99,,,-99.99,0.000000,,2013-04-06 08:13:00,
2013-04-06 02:22:00,58.0,19.0,30.04,WNW,284,24.0,30.0,21,-99.99,,,-99.99,0.000000,,2013-04-06 08:22:00,
2013-04-06 02:32:00,59.0,19.0,30.04,West,281,25.0,30.0,21,-99.99,,,-99.99,0.000000,,2013-04-06 08:32:00,
2013-04-06 02:42:00,59.0,20.0,30.04,WNW,283,24.0,28.0,21,-99.99,,,-99.99,0.000000,,2013-04-06 08:42:00,
2013-04-06 02:52:00,59.0,20.0,30.04,WNW,283,24.0,28.0,21,-99.99,,,-99.99,0.000000,,2013-04-06 08:52:00,
2013-04-06 03:02:00,58.0,20.0,30.04,West,277,24.0,31.0,22,-99.99,,,-99.99,0.000000,,2013-04-06 09:02:00,
2013-04-06 03:12:00,57.0,20.0,30.04,West,274,23.0,30.0,23,-99.99,,,-99.99,0.000000,,2013-04-06 09:12:00,
2013-04-06 03:22:00,57.0,20.0,30.04,West,274,23.0,30.0,23,-99.99,,,-99.99,0.000000,,2013-04-06 09:22:00,
2013-04-06 03:32:00,57.0,21.0,30.04,West,271,24.0,30.0,24,-99.99,,,-99.99,0.000000,,2013-04-06 09:32:00,
2013-04-06 03:43:00,58.0,21.0,30.04,West,266,24.0,30.0,23,-99.99,,,-99.99,0.000000,,2013-04-06 09:43:00,
2013-04-06 03:53:00,58.0,21.0,30.04,West,266,24.0,30.0,23,-99.99,,,-99.99,0.000000,,2013-04-06 09:53:00,
2013-04-06 04:03:00,58.0,21.0,30.04,West,263,25.0,30.0,23,-99.99,,,-99.99,0.000000,,2013-04-06 10:03:00,
2013-04-06 04:13:00,58.0,21.0,30.04,West,265,25.0,31.0,23,-99.99,,,-99.99,0.000000,,2013-04-06 10:13:00,
2013-04-06 04:23:00,58.0,21.0,30.04,West,265,25.0,31.0,23,-99.99,,,-99.99,0.000000,,2013-04-06 10:23:00,
2013-04-06 04:33:00,58.0,21.0,30.03,West,267,26.0,31.0,23,-99.99,,,-99.99,0.000000,,2013-04-06 10:33:00,
2013-04-06 04:42:00,58.0,21.0,30.03,West,263,25.0,30.0,24,-99.99,,,-99.99,0.000000,,2013-04-06 10:42:00,
2013-04-06 04:53:00,58.0,21.0,30.03,West,263,25.0,30.0,24,-99.99,,,-99.99,0.000000,,2013-04-06 10:53:00,
2013-04-06 05:02:00,57.0,21.0,30.03,West,267,25.0,31.0,24,-99.99,,,-99.99,0.000000,,2013-04-06 11:02:00,
2013-04-06 05:12:00,55.0,21.0,30.03,West,269,24.0,32.0,26,-99.99,,,-99.99,0.000000,,2013-04-06 11:12:00,
2013-04-06 05:23:00,55.0,21.0,30.03,West,269,24.0,32.0,26,-99.99,,,-99.99,0.000000,,2013-04-06 11:23:00,
2013-04-06 05:33:00,55.0,21.0,30.03,West,273,25.0,31.0,26,-99.99,,,-99.99,0.000000,,2013-04-06 11:33:00,
2013-04-06 05:43:00,57.0,21.0,30.02,West,262,27.0,33.0,24,-99.99,,,-99.99,0.000000,,2013-04-06 11:43:00,
2013-04-06 05:53:00,57.0,21.0,30.02,West,262,27.0,33.0,24,-99.99,,,-99.99,0.000000,,2013-04-06 11:53:00,
2013-04-06 06:02:00,58.0,22.0,30.02,West,259,28.0,34.0,24,-99.99,,,-99.99,0.000000,,2013-04-06 12:02:00,
2013-04-06 06:12:00,58.0,22.0,30.02,WSW,258,29.0,34.0,24,-99.99,,,-99.99,0.000000,,2013-04-06 12:12:00,
2013-04-06 06:22:00,58.0,22.0,30.02,WSW,258,29.0,34.0,24,-99.99,,,-99.99,0.000000,,2013-04-06 12:22:00,
2013-04-06 06:32:00,58.0,22.0,30.03,West,259,28.0,35.0,24,-99.99,,,-99.99,0.000000,,2013-04-06 12:32:00,
2013-04-06 06:43:00,58.0,22.0,30.03,West,259,27.0,33.0,25,-99.99,,,-99.99,0.000000,,2013-04-06 12:43:00,
2013-04-06 06:52:00,58.0,22.0,30.03,West,259,27.0,33.0,25,-99.99,,,-99.99,0.000000,,2013-04-06 12:52:00,
2013-04-06 07:03:00,58.0,22.0,30.03,WSW,257,29.0,35.0,24,-99.99,,,-99.99,0.000000,,2013-04-06 13:03:00,
2013-04-06 07:13:00,57.0,22.0,30.03,WSW,256,29.0,34.0,25,-99.99,,,-99.99,2.090000,,2013-04-06 13:13:00,
2013-04-06 07:23:00,57.0,22.0,30.03,WSW,256,29.0,34.0,25,-99.99,,,-99.99,2.090000,,2013-04-06 13:23:00,
2013-04-06 07:32:00,57.0,22.0,30.04,WSW,253,28.0,35.0,25,-99.99,,,-99.99,9.760000,,2013-04-06 13:32:00,
2013-04-06 07:43:00,57.0,23.0,30.04,West,259,27.0,34.0,25,-99.99,,,-99.99,43.230000,,2013-04-06 13:43:00,
2013-04-06 07:53:00,57.0,23.0,30.04,West,259,27.0,34.0,25,-99.99,,,-99.99,43.230000,,2013-04-06 13:53:00,
2013-04-06 08:04:00,57.0,23.0,30.05,West,261,27.0,34.0,25,-99.99,,,-99.99,89.260002,,2013-04-06 14:04:00,
2013-04-06 08:12:00,58.0,23.0,30.05,West,263,30.0,38.0,25,-99.99,,,-99.99,116.449997,,2013-04-06 14:12:00,
2013-04-06 08:22:00,58.0,23.0,30.05,West,263,30.0,38.0,25,-99.99,,,-99.99,116.449997,,2013-04-06 14:22:00,
2013-04-06 08:32:00,58.0,23.0,30.05,West,262,31.0,38.0,25,-99.99,,,-99.99,217.570007,,2013-04-06 14:32:00,
2013-04-06 08:42:00,59.0,23.0,30.04,West,260,34.0,42.0,25,-99.99,,,-99.99,216.869995,,2013-04-06 14:42:00,
2013-04-06 08:53:00,59.0,23.0,30.04,West,260,34.0,42.0,25,-99.99,,,-99.99,216.869995,,2013-04-06 14:53:00,
2013-04-06 09:02:00,58.0,24.0,30.04,WSW,258,35.0,43.0,26,-99.99,,,-99.99,157.600006,,2013-04-06 15:02:00,
2013-04-06 09:12:00,58.0,24.0,30.05,WSW,258,33.0,40.0,26,-99.99,,,-99.99,151.320007,,2013-04-06 15:12:00,
2013-04-06 09:23:00,58.0,24.0,30.05,WSW,258,33.0,40.0,26,-99.99,,,-99.99,151.320007,,2013-04-06 15:23:00,
2013-04-06 09:33:00,58.0,24.0,30.05,WSW,256,36.0,44.0,26,-99.99,,,-99.99,124.129997,,2013-04-06 15:33:00,
2013-04-06 09:43:00,57.0,24.0,30.05,WSW,254,35.0,42.0,27,-99.99,,,-99.99,113.669998,,2013-04-06 15:43:00,
2013-04-06 09:53:00,57.0,24.0,30.05,WSW,254,35.0,42.0,27,-99.99,,,-99.99,113.669998,,2013-04-06 15:53:00,
2013-04-06 10:05:00,57.0,24.0,30.06,WSW,252,33.0,39.0,27,-99.99,,,-99.99,171.539993,,2013-04-06 16:05:00,
2013-04-06 10:17:00,58.0,25.0,30.06,WSW,256,32.0,39.0,27,-99.99,,,-99.99,259.410004,,2013-04-06 16:17:00,
2013-04-06 10:23:00,58.0,25.0,30.06,WSW,256,32.0,39.0,27,-99.99,,,-99.99,259.410004,,2013-04-06 16:23:00,
2013-04-06 10:32:00,59.0,25.0,30.07,WSW,255,33.0,41.0,26,-99.99,,,-99.99,266.380005,,2013-04-06 16:32:00,
2013-04-06 10:42:00,59.0,25.0,30.07,West,262,33.0,40.0,26,-99.99,,,-99.99,295.670013,,2013-04-06 16:42:00,
2013-04-06 10:53:00,59.0,25.0,30.07,West,262,33.0,40.0,26,-99.99,,,-99.99,295.670013,,2013-04-06 16:53:00,
2013-04-06 11:02:00,60.0,25.0,30.08,West,259,31.0,38.0,26,-99.99,,,-99.99,610.169983,,2013-04-06 17:02:00,
2013-04-06 11:12:00,60.0,25.0,30.08,WSW,257,30.0,35.0,26,-99.99,,,-99.99,321.470001,,2013-04-06 17:12:00,
2013-04-06 11:22:00,60.0,25.0,30.08,WSW,257,30.0,35.0,26,-99.99,,,-99.99,321.470001,,2013-04-06 17:22:00,
2013-04-06 11:32:00,60.0,25.0,30.08,WSW,254,31.0,40.0,26,-99.99,,,-99.99,370.980011,,2013-04-06 17:32:00,
2013-04-06 11:42:00,61.0,25.0,30.08,WSW,250,32.0,39.0,25,-99.99,,,-99.99,758.700012,,2013-04-06 17:42:00,
2013-04-06 11:52:00,61.0,25.0,30.08,WSW,250,32.0,39.0,25,-99.99,,,-99.99,758.700012,,2013-04-06 17:52:00,
2013-04-06 12:03:00,61.0,25.0,30.08,WSW,250,32.0,39.0,25,-99.99,,,-99.99,758.700012,,2013-04-06 18:03:00,
2013-04-06 12:12:00,62.0,25.0,30.08,WSW,252,32.0,43.0,24,-99.99,,,-99.99,421.190002,,2013-04-06 18:12:00,
2013-04-06 12:23:00,62.0,25.0,30.08,WSW,252,32.0,43.0,24,-99.99,,,-99.99,421.190002,,2013-04-06 18:23:00,
2013-04-06 12:32:00,63.0,25.0,30.07,WSW,252,34.0,43.0,23,-99.99,,,-99.99,738.479980,,2013-04-06 18:32:00,
2013-04-06 12:42:00,64.0,25.0,30.06,WSW,251,34.0,46.0,22,-99.99,,,-99.99,1046.699951,,2013-04-06 18:42:00,
2013-04-06 12:52:00,64.0,25.0,30.06,WSW,251,34.0,46.0,22,-99.99,,,-99.99,1046.699951,,2013-04-06 18:52:00,
2013-04-06 13:12:00,64.0,24.0,30.06,WSW,239,29.0,40.0,21,-99.99,,,-99.99,993.700012,,2013-04-06 19:12:00,
2013-04-06 13:23:00,64.0,24.0,30.06,WSW,239,29.0,40.0,21,-99.99,,,-99.99,993.700012,,2013-04-06 19:23:00,
2013-04-06 13:32:00,66.0,23.0,30.06,WSW,252,30.0,43.0,19,-99.99,,,-99.99,983.940002,,2013-04-06 19:32:00,
2013-04-06 13:42:00,66.0,20.0,30.05,WSW,251,31.0,45.0,16,-99.99,,,-99.99,981.150024,,2013-04-06 19:42:00,
2013-04-06 13:54:00,66.0,20.0,30.05,WSW,251,31.0,45.0,16,-99.99,,,-99.99,981.150024,,2013-04-06 19:54:00,
2013-04-06 14:03:00,67.0,21.0,30.05,West,262,29.0,40.0,17,-99.99,,,-99.99,979.059998,,2013-04-06 20:03:00,
2013-04-06 14:12:00,68.0,20.0,30.04,WSW,256,29.0,44.0,16,-99.99,,,-99.99,974.169983,,2013-04-06 20:12:00,
2013-04-06 14:22:00,68.0,20.0,30.04,WSW,256,29.0,44.0,16,-99.99,,,-99.99,974.169983,,2013-04-06 20:22:00,
2013-04-06 14:32:00,68.0,20.0,30.03,WSW,251,31.0,45.0,16,-99.99,,,-99.99,954.650024,,2013-04-06 20:32:00,
2013-04-06 14:42:00,68.0,20.0,30.03,WSW,252,28.0,43.0,16,-99.99,,,-99.99,935.119995,,2013-04-06 20:42:00,
2013-04-06 14:52:00,68.0,20.0,30.03,WSW,252,28.0,43.0,16,-99.99,,,-99.99,935.119995,,2013-04-06 20:52:00,
2013-04-06 15:02:00,69.0,20.0,30.01,WSW,248,29.0,46.0,15,-99.99,,,-99.99,909.320007,,2013-04-06 21:02:00,
2013-04-06 15:13:00,69.0,20.0,30.01,WSW,248,29.0,46.0,15,-99.99,,,-99.99,909.320007,,2013-04-06 21:13:00,
2013-04-06 15:22:00,69.0,20.0,30.01,WSW,248,29.0,46.0,15,-99.99,,,-99.99,909.320007,,2013-04-06 21:22:00,
2013-04-06 15:33:00,70.0,19.0,30.00,WSW,247,30.0,41.0,14,-99.99,,,-99.99,847.260010,,2013-04-06 21:33:00,
2013-04-06 15:43:00,70.0,18.0,29.99,WSW,245,29.0,44.0,13,-99.99,,,-99.99,832.619995,,2013-04-06 21:43:00,
2013-04-06 15:53:00,70.0,18.0,29.99,WSW,245,29.0,44.0,13,-99.99,,,-99.99,832.619995,,2013-04-06 21:53:00,
2013-04-06 16:03:00,70.0,17.0,29.98,WSW,248,31.0,48.0,12,-99.99,,,-99.99,799.840027,,2013-04-06 22:03:00,
2013-04-06 16:13:00,70.0,15.0,29.96,WSW,241,34.0,48.0,11,-99.99,,,-99.99,762.880005,,2013-04-06 22:13:00,
2013-04-06 16:23:00,70.0,15.0,29.96,WSW,241,34.0,48.0,11,-99.99,,,-99.99,762.880005,,2013-04-06 22:23:00,
2013-04-06 16:34:00,71.0,15.0,29.96,WSW,257,36.0,51.0,11,-99.99,,,-99.99,721.739990,,2013-04-06 22:34:00,
2013-04-06 16:43:00,70.0,14.0,29.95,WSW,244,35.0,46.0,11,-99.99,,,-99.99,661.070007,,2013-04-06 22:43:00,
2013-04-06 16:53:00,70.0,14.0,29.95,WSW,244,35.0,46.0,11,-99.99,,,-99.99,661.070007,,2013-04-06 22:53:00,
2013-04-06 17:03:00,71.0,14.0,29.95,WSW,254,37.0,50.0,10,-99.99,,,-99.99,629.690002,,2013-04-06 23:03:00,
2013-04-06 17:13:00,71.0,14.0,29.94,WSW,253,36.0,48.0,10,-99.99,,,-99.99,562.049988,,2013-04-06 23:13:00,
2013-04-06 17:23:00,71.0,14.0,29.94,WSW,253,36.0,48.0,10,-99.99,,,-99.99,562.049988,,2013-04-06 23:23:00,
2013-04-06 17:34:00,71.0,14.0,29.94,WSW,256,36.0,51.0,10,-99.99,,,-99.99,472.790009,,2013-04-06 23:34:00,
2013-04-06 17:42:00,71.0,14.0,29.93,WSW,245,36.0,51.0,10,-99.99,,,-99.99,470.000000,,2013-04-06 23:42:00,
2013-04-06 17:53:00,71.0,14.0,29.93,WSW,245,36.0,51.0,10,-99.99,,,-99.99,470.000000,,2013-04-06 23:53:00,
2013-04-06 18:02:00,71.0,14.0,29.93,WSW,253,37.0,53.0,10,-99.99,,,-99.99,404.450012,,2013-04-07 00:02:00,
2013-04-06 18:13:00,71.0,13.0,29.92,WSW,247,39.0,53.0,10,-99.99,,,-99.99,82.980003,,2013-04-07 00:13:00,
2013-04-06 18:22:00,71.0,13.0,29.92,WSW,247,39.0,53.0,10,-99.99,,,-99.99,82.980003,,2013-04-07 00:22:00,
2013-04-06 18:32:00,70.0,14.0,29.93,WSW,250,38.0,49.0,11,-99.99,,,-99.99,297.760010,,2013-04-07 00:32:00,
2013-04-06 18:43:00,70.0,14.0,29.93,WSW,253,39.0,50.0,11,-99.99,,,-99.99,205.710007,,2013-04-07 00:43:00,
2013-04-06 18:53:00,70.0,14.0,29.93,WSW,253,39.0,50.0,11,-99.99,,,-99.99,205.710007,,2013-04-07 00:53:00,
2013-04-06 19:02:00,70.0,14.0,29.93,WSW,251,40.0,50.0,11,-99.99,,,-99.99,80.889999,,2013-04-07 01:02:00,
2013-04-06 19:12:00,69.0,15.0,29.93,WSW,252,40.0,49.0,12,-99.99,,,-99.99,63.459999,,2013-04-07 01:12:00,
2013-04-06 19:23:00,69.0,15.0,29.93,WSW,252,40.0,49.0,12,-99.99,,,-99.99,63.459999,,2013-04-07 01:23:00,
2013-04-06 19:32:00,69.0,15.0,29.92,WSW,253,40.0,50.0,12,-99.99,,,-99.99,46.020000,,2013-04-07 01:32:00,
2013-04-06 19:43:00,68.0,15.0,29.92,WSW,254,40.0,49.0,12,-99.99,,,-99.99,25.799999,,2013-04-07 01:43:00,
2013-04-06 19:53:00,68.0,15.0,29.92,WSW,254,40.0,49.0,12,-99.99,,,-99.99,25.799999,,2013-04-07 01:53:00,
2013-04-06 20:03:00,67.0,15.0,29.93,WSW,255,40.0,48.0,13,-99.99,,,-99.99,9.070000,,2013-04-07 02:03:00,
2013-04-06 20:12:00,66.0,15.0,29.94,WSW,256,35.0,46.0,13,-99.99,,,-99.99,1.390000,,2013-04-07 02:12:00,
2013-04-06 20:23:00,66.0,15.0,29.94,WSW,256,35.0,46.0,13,-99.99,,,-99.99,1.390000,,2013-04-07 02:23:00,
2013-04-06 20:32:00,66.0,15.0,29.95,West,264,32.0,39.0,13,-99.99,,,-99.99,0.000000,,2013-04-07 02:32:00,
2013-04-06 20:43:00,64.0,15.0,29.96,West,272,29.0,36.0,14,-99.99,,,-99.99,0.000000,,2013-04-07 02:43:00,
2013-04-06 20:52:00,64.0,15.0,29.96,West,272,29.0,36.0,14,-99.99,,,-99.99,0.000000,,2013-04-07 02:52:00,
2013-04-06 21:02:00,63.0,15.0,29.97,West,276,28.0,33.0,15,-99.99,,,-99.99,0.000000,,2013-04-07 03:02:00,
2013-04-06 21:12:00,63.0,15.0,29.97,West,275,27.0,34.0,15,-99.99,,,-99.99,0.000000,,2013-04-07 03:12:00,
2013-04-06 21:22:00,63.0,15.0,29.97,West,275,27.0,34.0,15,-99.99,,,-99.99,0.000000,,2013-04-07 03:22:00,
2013-04-06 21:34:00,62.0,15.0,29.97,West,275,25.0,32.0,15,-99.99,,,-99.99,0.000000,,2013-04-07 03:34:00,
2013-04-06 21:43:00,63.0,15.0,29.98,West,261,28.0,35.0,15,-99.99,,,-99.99,0.000000,,2013-04-07 03:43:00,
2013-04-06 21:54:00,63.0,15.0,29.98,West,261,28.0,35.0,15,-99.99,,,-99.99,0.000000,,2013-04-07 03:54:00,
2013-04-06 22:03:00,64.0,15.0,29.98,West,262,28.0,34.0,14,-99.99,,,-99.99,0.000000,,2013-04-07 04:03:00,
2013-04-06 22:14:00,64.0,15.0,29.98,West,265,26.0,32.0,15,-99.99,,,-99.99,0.000000,,2013-04-07 04:14:00,
2013-04-06 22:23:00,64.0,15.0,29.98,West,265,26.0,32.0,15,-99.99,,,-99.99,0.000000,,2013-04-07 04:23:00,
2013-04-06 22:32:00,64.0,15.0,29.98,West,262,27.0,32.0,14,-99.99,,,-99.99,0.000000,,2013-04-07 04:32:00,
2013-04-06 22:43:00,64.0,15.0,29.98,West,261,26.0,33.0,14,-99.99,,,-99.99,0.000000,,2013-04-07 04:43:00,
2013-04-06 22:53:00,64.0,15.0,29.98,West,261,26.0,33.0,14,-99.99,,,-99.99,0.000000,,2013-04-07 04:53:00,
2013-04-06 23:02:00,63.0,15.0,29.98,West,260,26.0,33.0,14,-99.99,,,-99.99,0.000000,,2013-04-07 05:02:00,
2013-04-06 23:12:00,64.0,15.0,29.98,WSW,256,28.0,35.0,14,-99.99,,,-99.99,0.000000,,2013-04-07 05:12:00,
2013-04-06 23:23:00,64.0,15.0,29.98,WSW,256,28.0,35.0,14,-99.99,,,-99.99,0.000000,,2013-04-07 05:23:00,
2013-04-06 23:33:00,63.0,15.0,29.98,WSW,254,29.0,38.0,14,-99.99,,,-99.99,0.000000,,2013-04-07 05:33:00,
2013-04-06 23:42:00,64.0,15.0,29.98,WSW,255,30.0,36.0,14,-99.99,,,-99.99,0.000000,,2013-04-07 05:42:00,
2013-04-06 23:52:00,64.0,15.0,29.98,WSW,255,30.0,36.0,14,-99.99,,,-99.99,0.000000,,2013-04-07 05:52:00,